Regional Weather Roundup
Issued by NWS

Home | Current Version | Previous Version | Graphics & Text | Print | Product List | Glossary On
Versions: 1 2 3 4 5 6 7 8 9 10 11 12 13 14 15 16 17 18 19 20 21 22 23 24 25 26 27 28 29 30 31 32 33 34 35 36 37 38 39 40 41 42 43 44 45 46 47 48 49 50
000
ASUS43 KDTX 311910
RWRMI
MICHIGAN HOURLY REGIONAL WEATHER ROUNDUP
NATIONAL WEATHER SERVICE DETROIT/PONTIAC MI
300 PM EDT FRI JUL 31 2015

NOTE: "FAIR" INDICATES FEW OR NO CLOUDS BELOW 12,000 FEET WITH NO
SIGNIFICANT WEATHER AND/OR OBSTRUCTION TO VISIBILITY.

MIZ047>049-052>055-059>063-066>070-074>076-081>083-312000-
SOUTHEAST LOWER MICHIGAN

CITY           SKY/WX    TMP DP  RH WIND       PRES   REMARKS
ADRIAN         MOSUNNY   83  58  42 W12G25    29.91F
ALMA           PTSUNNY   83  51  32 W16G29    29.85F
ANN ARBOR      CLOUDY    83  59  44 W18G28    29.88F
BAD AXE        MOSUNNY   82  56  41 W18G24    29.82F
CARO           SUNNY     84  59  42 W15G22    29.82F
DETROIT CITY   SUNNY     85  56  37 W13G21    29.85F
DETROIT        MOSUNNY   84  57  39 SW14G25   29.87F
FLINT          MOSUNNY   84  55  36 W23G29    29.85F
GROSSE ILE     PTSUNNY   86  55  35 W8G16     29.86F
HILLSDALE      MOSUNNY   85  59  42 W17G24    29.93F
HOWELL         MOSUNNY   85  55  36 W18G25    29.88S

CITY           SKY/WX    TMP DP  RH WIND       PRES   REMARKS
JACKSON        SUNNY     83  61  47 W17G23    29.90F
LAMBERTVILLE   MOSUNNY   86  58  38 W13G21    29.90F
LANSING        MOSUNNY   83  52  34 W17G29    29.88F
LAPEER         FAIR      81  59  46 W10G17    29.85F
MASON          MOSUNNY   82  55  39 W16G22    29.89F
MONROE         MOSUNNY   85  61  44 W16G24    29.87F
MT. CLEMENS    PTSUNNY   83  58  43 W13G21    29.83F
PONTIAC        PTSUNNY   76  63  64 NW9       29.87F
PORT HOPE        N/A     80  58  46 W13G22    29.79F
PORT HURON     PTSUNNY   82  59  44 W9        29.84F
TRI CITIES     PTSUNNY   84  56  38 W20G26    29.83F
MIDLAND        CLOUDY    81  55  41 NW10      29.82S
TROY           CLOUDY    85  54  34 W18G25    29.87F
SAGINAW HB     SUNNY     86  54  32 W13G25    29.82F
$$
MIZ043>046-050>051-056>058-064>065-071>073-077>080-312000-
SOUTHWEST LOWER MICHIGAN

CITY           SKY/WX    TMP DP  RH WIND       PRES   REMARKS
BATTLE CREEK   MOSUNNY   85  53  33 W20G30    29.93F
BENTON HARBOR  SUNNY     84  61  45 W16       29.95F
BIG RAPIDS     PTSUNNY   80  47  31 W17G28    29.87S
COLDWATER      SUNNY     83  56  38 W18G28    29.93S
FREMONT        FAIR      81  48  31 W16G28    29.89S
HOLLAND        SUNNY     83  61  47 W14G23    29.93F
GRAND RAPIDS   MOSUNNY   83  53  35 W23G31    29.90F
IONIA          FAIR      85  51  30 W23G29    29.87F
KALAMAZOO      MOSUNNY   85  51  31 NW17G26   29.93F
LUDINGTON      SUNNY     79  60  50 NW10G16   29.90S
MARSHALL       SUNNY     85  58  39 W17G25    29.91F
MOUNT PLEASANT MOSUNNY   86  50  28 W15G25    29.83F
MUSKEGON       MOSUNNY   81  59  47 W15G24    29.91S
SOUTH HAVEN    SUNNY     80  62  55 W9        29.94F
$$
MIZ016>042-312000-
NORTHERN LOWER MICHIGAN

CITY           SKY/WX    TMP DP  RH WIND       PRES   REMARKS
ALPENA         PTSUNNY   80  54  40 W10G20    29.78S
BEAVER ISLAND  LGT RAIN  66  61  82 SW10      29.84R
BELLAIRE       MOSUNNY   77  55  46 W8        29.84S
CADILLAC       MOSUNNY   79  54  41 W20G30    29.87S
CHARLEVOIX     SUNNY     77  58  52 W14       29.86F
FRANKFORT      SUNNY     79  61  53 W9G16     29.87F
GAYLORD        PTSUNNY   78  52  40 W10G21    29.84S
GRAYLING       MOSUNNY   79  53  40 W14G25    29.85S
HARBOR SPRINGS SUNNY     73  62  68 SW9G20    29.82F
HOUGHTON LAKE  PTSUNNY   77  54  44 W18G25    29.84F
MANISTEE       SUNNY     79  57  47 W12       29.89F
OSCODA         RAIN      77  57  49 W24       29.79R
PELLSTON       MOSUNNY   80  53  39 W18G26    29.81F
ROGERS CITY    PTSUNNY   77  58  52 NW9       29.79F
TRAVERSE CITY  PTSUNNY   82  56  40 W15       29.83F
$$
MIZ007>008-015-312000-
EASTERN UPPER MICHIGAN

CITY           SKY/WX    TMP DP  RH WIND       PRES   REMARKS
KINROSS        SUNNY     73  55  53 NW22G28   29.78F
MACKINAC ISLAN SUNNY     76  54  46 W17G26    29.79S
NEWBERRY       MOSUNNY   76  53  43 W14G23    29.80F
S. S. MARIE    SUNNY     68  57  68 NW14G24   29.80R
MUNISING         N/A     72  57  59 N13G25    29.84R
$$
MIZ004>006-011>014-085-312000-
CENTRAL UPPER MICHIGAN

CITY           SKY/WX    TMP DP  RH WIND       PRES   REMARKS
MANISTIQUE     LGT RAIN  68  59  73 SW6G17    29.81S
ESCANABA       PTSUNNY   72  54  53 NW13G18   29.83R
MENOMINEE      PTSUNNY   81  54  39 NW15G21   29.85F
SAWYER-GWINN   PTSUNNY   75  46  35 NW20      29.85S
$$
MIZ001>003-009>011-084-312000-
WESTERN UPPER MICHIGAN

CITY           SKY/WX    TMP DP  RH WIND       PRES   REMARKS
IRON MOUNTAIN  PTSUNNY   78  51  38 NW15G23   29.87S
HOUGHTON       SUNNY     70  54  56 W20G25    29.86F
COPPER HARBOR    N/A     69  55  60 N17G26    29.83F
IRONWOOD       SUNNY     72  54  53 W17G25    29.91F
$$

ABBREVIATIONS USED IN REMARKS
   TC - TEMPERATURE IN CELSIUS
  WCI - WIND CHILL INDEX
   HX - HEAT INDEX
  VSB - VISIBILITY



USA.gov is the U.S. government's official web portal to all federal, state and local government web resources and services.